Location: Appeville
(49.3218°N, 1.3427°W)
Time: 11:06:17
(UTC+00:00)

Cosmos 1607 - Pass Details

Date: 08 December 2019
Orbit: 925 x 977 km, 65.0° (Epoch: 25 January)

Event Time Altitude Azimuth Distance (km) Brightness Sun altitude
Exits shadow 05:17:05 49° 296° (WNW) 1,181 4.0 -23.4°
Maximum altitude 05:17:45 52° 318° (NW) 1,151 4.0 -23.3°
Drops below altitude 10° 05:23:46 10° 34° (NE) 2,653 6.6 -22.3°
Sets 05:26:25 0° 40° (NE) 3,606 7.4 -21.9°
